| time (UTC) | temp C | wind direction | speed KPH | gust KPH | rain 1hr cm | rain 24hr cm | rain mn cm | humidity % | barometer mb |
| 20260508125459 | 10 | 309 | 11.3 | 16.1 | 0.00 | 0.00 | 0.00 | 59 | 1017.2 |
| 20260508124527 | 9 | 289 | 9.7 | 12.9 | 0.00 | 0.00 | 0.00 | 59 | 1017.2 |
| 20260508123516 | 9 | 308 | 8.0 | 16.1 | 0.00 | 0.00 | 0.00 | 59 | 1017.1 |
| 20260508122502 | 9 | 296 | 6.4 | 11.3 | 0.00 | 0.00 | 0.00 | 64 | 1016.9 |
| 20260508121505 | 8 | 308 | 6.4 | 9.7 | 0.00 | 0.00 | 0.00 | 66 | 1017.7 |
| 20260508120514 | 8 | 308 | 6.4 | 9.7 | 0.00 | 0.00 | 0.00 | 69 | 1017.4 |
| 20260508115503 | 8 | 307 | 4.8 | 12.9 | 0.00 | 0.00 | 0.00 | 68 | 1017.3 |
| 20260508114510 | 7 | 355 | 1.6 | 11.3 | 0.00 | 0.00 | 0.00 | 69 | 1017.2 |
| 20260508113515 | 7 | 311 | 1.6 | 6.4 | 0.00 | 0.00 | 0.00 | 70 | 1017.1 |
| 20260508112506 | 6 | 310 | 3.2 | 8.0 | 0.00 | 0.00 | 0.00 | 73 | 1016.9 |
| 20260508111511 | 6 | 311 | 1.6 | 6.4 | 0.00 | 0.00 | 0.00 | 75 | 1016.8 |
| 20260508110458 | 5 | 309 | 4.8 | 9.7 | 0.00 | 0.00 | 0.00 | 75 | 1016.5 |
| 20260508105511 | 5 | 312 | 3.2 | 9.7 | 0.00 | 0.00 | 0.00 | 75 | 1016.4 |
| 20260508104458 | 5 | 304 | 9.7 | 12.9 | 0.00 | 0.00 | 0.00 | 74 | 1016.2 |
| 20260508103510 | 5 | 299 | 4.8 | 14.5 | 0.00 | 0.00 | 0.00 | 74 | 1016.2 |
| 20260508102516 | 5 | 309 | 9.7 | 17.7 | 0.00 | 0.00 | 0.00 | 74 | 1015.9 |
| 20260508101500 | 5 | 300 | 11.3 | 22.5 | 0.00 | 0.03 | 0.00 | 75 | 1015.7 |
| 20260508100512 | 5 | 287 | 6.4 | 14.5 | 0.00 | 0.03 | 0.00 | 76 | 1015.5 |
| 20260508095458 | 5 | 298 | 8.0 | 24.1 | 0.00 | 0.03 | 0.00 | 76 | 1015.3 |
| 20260508094530 | 5 | 309 | 6.4 | 19.3 | 0.00 | 0.03 | 0.00 | 76 | 1015.2 |
| 20260508093456 | 5 | 297 | 6.4 | 17.7 | 0.00 | 0.03 | 0.00 | 77 | 1015.2 |
| 20260508092525 | 5 | 321 | 4.8 | 17.7 | 0.00 | 0.03 | 0.00 | 77 | 1015.3 |
| 20260508091510 | 6 | 28 | 1.6 | 17.7 | 0.00 | 0.03 | 0.00 | 77 | 1015.0 |
| 20260508090537 | 6 | 347 | 6.4 | 16.1 | 0.00 | 0.03 | 0.00 | 75 | 1015.1 |
| 20260508085504 | 6 | 300 | 6.4 | 16.1 | 0.00 | 0.03 | 0.00 | 74 | 1015.1 |
| 20260508084513 | 6 | 303 | 8.0 | 20.9 | 0.00 | 0.03 | 0.00 | 74 | 1015.1 |
| 20260508083536 | 6 | 14 | 9.7 | 19.3 | 0.00 | 0.03 | 0.00 | 73 | 1014.7 |
| 20260508082501 | 7 | 299 | 4.8 | 24.1 | 0.00 | 0.03 | 0.00 | 73 | 1014.5 |
| 20260508081509 | 7 | 331 | 11.3 | 19.3 | 0.00 | 0.03 | 0.00 | 72 | 1014.3 |
| 20260508080533 | 7 | 307 | 9.7 | 19.3 | 0.00 | 0.03 | 0.00 | 72 | 1014.2 |
| 20260508075517 | 7 | 344 | 8.0 | 19.3 | 0.00 | 0.03 | 0.00 | 71 | 1014.1 |
| 20260508074504 | 7 | 304 | 12.9 | 27.4 | 0.00 | 0.03 | 0.00 | 72 | 1013.9 |
| 20260508073512 | 7 | 355 | 12.9 | 27.4 | 0.00 | 0.03 | 0.00 | 73 | 1013.7 |
| 20260508072500 | 7 | 293 | 6.4 | 37.0 | 0.00 | 0.03 | 0.00 | 73 | 1013.7 |
| 20260508071503 | 7 | 344 | 11.3 | 29.0 | 0.00 | 0.05 | 0.00 | 75 | 1013.7 |
| 20260508070514 | 7 | 287 | 9.7 | 22.5 | 0.00 | 0.05 | 0.00 | 76 | 1013.7 |
| 20260508065502 | 7 | 284 | 14.5 | 25.7 | 0.00 | 0.05 | 0.00 | 77 | 1014.0 |
| 20260508064532 | 7 | 278 | 11.3 | 25.7 | 0.00 | 0.05 | 0.00 | 78 | 1014.0 |
| 20260508063515 | 7 | 355 | 8.0 | 17.7 | 0.00 | 0.05 | 0.00 | 79 | 1014.1 |
| 20260508062506 | 7 | 316 | 6.4 | 24.1 | 0.00 | 0.05 | 0.00 | 79 | 1014.1 |
| 20260508061515 | 7 | 280 | 6.4 | 16.1 | 0.00 | 0.05 | 0.00 | 78 | 1014.1 |
| 20260508060503 | 8 | 302 | 14.5 | 22.5 | 0.00 | 0.05 | 0.00 | 79 | 1014.2 |
| 20260508055510 | 8 | 284 | 12.9 | 17.7 | 0.00 | 0.05 | 0.00 | 79 | 1014.3 |
| 20260508054515 | 8 | 295 | 12.9 | 19.3 | 0.00 | 0.05 | 0.00 | 78 | 1014.4 |
| 20260508053503 | 8 | 304 | 9.7 | 20.9 | 0.00 | 0.05 | 0.00 | 79 | 1014.4 |
| 20260508052509 | 8 | 297 | 19.3 | 29.0 | 0.00 | 0.05 | 0.00 | 79 | 1014.3 |
| 20260508051459 | 8 | 306 | 14.5 | 20.9 | 0.00 | 0.08 | 0.00 | 80 | 1014.0 |
| 20260508050510 | 8 | 283 | 8.0 | 27.4 | 0.00 | 0.08 | 0.00 | 80 | 1014.7 |
| 20260508045514 | 8 | 319 | 12.9 | 24.1 | 0.00 | 0.08 | 0.00 | 81 | 1014.5 |
| 20260508044459 | 8 | 300 | 11.3 | 25.7 | 0.00 | 0.08 | 0.00 | 82 | 1014.4 |
| 20260508043507 | 8 | 295 | 17.7 | 32.2 | 0.00 | 0.08 | 0.00 | 82 | 1014.2 |
| 20260508042507 | 8 | 329 | 16.1 | 35.4 | 0.00 | 0.08 | 0.00 | 81 | 1014.0 |
| 20260508041504 | 8 | 296 | 9.7 | 30.6 | 0.00 | 0.10 | 0.00 | 81 | 1013.8 |
| 20260508040510 | 8 | 304 | 9.7 | 30.6 | 0.00 | 0.10 | 0.00 | 82 | 1013.8 |
| 20260508035514 | 8 | 298 | 14.5 | 37.0 | 0.00 | 0.10 | 0.10 | 81 | 1014.1 |
| 20260508034505 | 8 | 307 | 17.7 | 24.1 | 0.00 | 0.10 | 0.10 | 81 | 1013.9 |
| 20260508033513 | 8 | 302 | 9.7 | 29.0 | 0.00 | 0.10 | 0.10 | 80 | 1013.9 |
| 20260508032459 | 9 | 312 | 16.1 | 25.7 | 0.00 | 0.10 | 0.10 | 80 | 1013.8 |
| 20260508031503 | 9 | 316 | 12.9 | 29.0 | 0.00 | 0.15 | 0.10 | 79 | 1013.6 |
| 20260508030509 | 9 | 304 | 19.3 | 27.4 | 0.00 | 0.15 | 0.10 | 78 | 1013.5 |
| 20260508025501 | 9 | 269 | 17.7 | 27.4 | 0.00 | 0.15 | 0.10 | 78 | 1013.5 |
| 20260508024506 | 9 | 309 | 17.7 | 30.6 | 0.00 | 0.15 | 0.10 | 78 | 1013.5 |
| 20260508023515 | 10 | 289 | 12.9 | 35.4 | 0.00 | 0.15 | 0.10 | 77 | 1013.3 |
| 20260508022506 | 10 | 319 | 19.3 | 32.2 | 0.00 | 0.15 | 0.10 | 77 | 1013.0 |
| 20260508021513 | 10 | 288 | 14.5 | 27.4 | 0.00 | 0.15 | 0.10 | 77 | 1012.9 |
| 20260508020517 | 10 | 316 | 14.5 | 35.4 | 0.00 | 0.15 | 0.10 | 77 | 1012.8 |
| 20260508015503 | 10 | 302 | 14.5 | 30.6 | 0.00 | 0.15 | 0.10 | 77 | 1012.7 |
| 20260508014528 | 10 | 302 | 16.1 | 38.6 | 0.00 | 0.15 | 0.10 | 77 | 1012.6 |
| 20260508013537 | 10 | 300 | 14.5 | 32.2 | 0.00 | 0.15 | 0.10 | 77 | 1012.4 |
| 20260508012503 | 10 | 286 | 16.1 | 33.8 | 0.00 | 0.15 | 0.10 | 77 | 1012.2 |
| 20260508011527 | 10 | 313 | 20.9 | 30.6 | 0.00 | 0.15 | 0.10 | 77 | 1012.0 |
| 20260508010516 | 10 | 305 | 16.1 | 30.6 | 0.00 | 0.15 | 0.10 | 77 | 1011.7 |
| 20260508005503 | 10 | 279 | 14.5 | 25.7 | 0.00 | 0.15 | 0.10 | 76 | 1011.7 |
| 20260508004509 | 10 | 315 | 16.1 | 29.0 | 0.00 | 0.15 | 0.10 | 75 | 1011.7 |
| 20260508003514 | 10 | 288 | 17.7 | 30.6 | 0.00 | 0.15 | 0.10 | 74 | 1011.7 |
| 20260508002502 | 10 | 297 | 22.5 | 32.2 | 0.00 | 0.15 | 0.10 | 74 | 1011.5 |
| 20260508001509 | 10 | 296 | 17.7 | 30.6 | 0.00 | 0.15 | 0.10 | 74 | 1011.6 |
| 20260508000515 | 11 | 309 | 16.1 | 30.6 | 0.00 | 0.15 | 0.10 | 73 | 1011.6 |
| 20260507235504 | 11 | 291 | 17.7 | 30.6 | 0.00 | 0.15 | 0.10 | 72 | 1011.6 |
| 20260507234515 | 11 | 292 | 19.3 | 29.0 | 0.00 | 0.15 | 0.10 | 72 | 1011.7 |
| 20260507233502 | 11 | 327 | 20.9 | 38.6 | 0.00 | 0.15 | 0.10 | 72 | 1011.5 |
| 20260507232506 | 11 | 284 | 22.5 | 41.8 | 0.00 | 0.15 | 0.10 | 72 | 1011.2 |
| 20260507231513 | 11 | 323 | 20.9 | 40.2 | 0.00 | 0.15 | 0.10 | 72 | 1011.2 |
| 20260507230504 | 12 | 278 | 19.3 | 32.2 | 0.00 | 0.15 | 0.10 | 72 | 1011.2 |
| 20260507225507 | 12 | 304 | 11.3 | 37.0 | 0.00 | 0.15 | 0.10 | 72 | 1011.1 |
| 20260507224533 | 12 | 296 | 20.9 | 37.0 | 0.00 | 0.15 | 0.10 | 73 | 1011.1 |
| 20260507223536 | 12 | 300 | 29.0 | 37.0 | 0.00 | 0.15 | 0.10 | 74 | 1010.9 |
| 20260507222501 | 12 | 271 | 12.9 | 29.0 | 0.00 | 0.15 | 0.10 | 75 | 1010.7 |
| 20260507221532 | 12 | 278 | 19.3 | 33.8 | 0.00 | 0.15 | 0.10 | 75 | 1010.6 |
| 20260507220515 | 12 | 275 | 22.5 | 38.6 | 0.00 | 0.15 | 0.10 | 75 | 1010.4 |
| 20260507215502 | 12 | 307 | 20.9 | 35.4 | 0.00 | 0.15 | 0.10 | 77 | 1010.3 |
| 20260507214510 | 11 | 312 | 16.1 | 32.2 | 0.00 | 0.15 | 0.10 | 80 | 1010.4 |
| 20260507213458 | 11 | 299 | 16.1 | 38.6 | 0.00 | 0.15 | 0.10 | 79 | 1010.5 |
| 20260507212505 | 12 | 284 | 9.7 | 32.2 | 0.00 | 0.15 | 0.10 | 79 | 1010.7 |
| 20260507211509 | 13 | 290 | 12.9 | 29.0 | 0.00 | 0.15 | 0.10 | 77 | 1010.3 |
| 20260507210515 | 14 | 306 | 9.7 | 29.0 | 0.00 | 0.15 | 0.10 | 77 | 1010.0 |
| 20260507205501 | 15 | 327 | 20.9 | 30.6 | 0.00 | 0.15 | 0.10 | 76 | 1009.8 |
| 20260507204505 | 15 | 306 | 16.1 | 37.0 | 0.00 | 0.15 | 0.10 | 75 | 1010.5 |
| 20260507203512 | 15 | 306 | 16.1 | 40.2 | 0.00 | 0.15 | 0.10 | 74 | 1010.3 |
| 20260507202500 | 16 | 277 | 19.3 | 33.8 | 0.00 | 0.15 | 0.10 | 76 | 1010.2 |
| 20260507201510 | 15 | 296 | 11.3 | 25.7 | 0.00 | 0.15 | 0.10 | 79 | 1010.1 |
| 20260507200515 | 15 | 5 | 12.9 | 27.4 | 0.00 | 0.15 | 0.10 | 80 | 1009.9 |
| 20260507195511 | 15 | 286 | 11.3 | 22.5 | 0.00 | 0.15 | 0.10 | 82 | 1010.1 |
| 20260507194502 | 15 | 290 | 16.1 | 27.4 | 0.00 | 0.15 | 0.10 | 81 | 1010.3 |
| 20260507193508 | 15 | 344 | 12.9 | 25.7 | 0.00 | 0.15 | 0.10 | 82 | 1010.4 |
| 20260507192515 | 15 | 360 | 16.1 | 22.5 | 0.00 | 0.15 | 0.10 | 80 | 1010.4 |
| 20260507191500 | 16 | 16 | 12.9 | 30.6 | 0.00 | 0.15 | 0.10 | 80 | 1010.3 |
| 20260507190504 | 16 | 327 | 12.9 | 37.0 | 0.00 | 0.15 | 0.10 | 81 | 1010.3 |
| 20260507185510 | 15 | 355 | 12.9 | 29.0 | 0.00 | 0.15 | 0.10 | 82 | 1010.4 |
| 20260507184457 | 15 | 332 | 6.4 | 22.5 | 0.00 | 0.15 | 0.10 | 83 | 1010.7 |
| 20260507183508 | 15 | 23 | 8.0 | 22.5 | 0.00 | 0.15 | 0.10 | 85 | 1010.8 |
| 20260507182504 | 15 | 311 | 9.7 | 33.8 | 0.00 | 0.15 | 0.10 | 86 | 1010.8 |
| 20260507181510 | 13 | 325 | 17.7 | 30.6 | 0.00 | 0.15 | 0.10 | 86 | 1010.7 |
| 20260507180534 | 13 | 350 | 17.7 | 25.7 | 0.00 | 0.15 | 0.10 | 87 | 1010.9 |
| 20260507175503 | 13 | 14 | 16.1 | 24.1 | 0.00 | 0.15 | 0.10 | 89 | 1011.0 |
| 20260507174510 | 13 | 5 | 9.7 | 22.5 | 0.00 | 0.15 | 0.10 | 89 | 1011.0 |
| 20260507173533 | 13 | 355 | 11.3 | 22.5 | 0.00 | 0.15 | 0.10 | 91 | 1010.9 |
| 20260507172502 | 13 | 5 | 8.0 | 20.9 | 0.00 | 0.15 | 0.10 | 89 | 1011.0 |
| 20260507171511 | 12 | 5 | 6.4 | 19.3 | 0.00 | 0.15 | 0.10 | 90 | 1011.1 |
| 20260507170516 | 13 | 288 | 6.4 | 19.3 | 0.00 | 0.15 | 0.10 | 90 | 1011.1 |
| 20260507165523 | 12 | 350 | 9.7 | 20.9 | 0.00 | 0.15 | 0.10 | 92 | 1011.2 |
| 20260507164510 | 12 | 355 | 8.0 | 19.3 | 0.00 | 0.15 | 0.10 | 92 | 1011.3 |
| 20260507163501 | 12 | 344 | 9.7 | 22.5 | 0.00 | 0.15 | 0.10 | 92 | 1011.2 |
| 20260507162507 | 12 | 21 | 8.0 | 27.4 | 0.00 | 0.15 | 0.10 | 92 | 1011.1 |
| 20260507161536 | 12 | 15 | 16.1 | 25.7 | 0.00 | 0.15 | 0.10 | 92 | 1011.1 |
| 20260507160503 | 12 | 360 | 12.9 | 24.1 | 0.00 | 0.15 | 0.10 | 92 | 1011.3 |
| 20260507155510 | 12 | 14 | 14.5 | 22.5 | 0.00 | 0.15 | 0.10 | 92 | 1011.4 |
| 20260507154514 | 13 | 30 | 14.5 | 24.1 | 0.00 | 0.15 | 0.10 | 92 | 1011.4 |
| 20260507153525 | 13 | 329 | 8.0 | 25.7 | 0.00 | 0.15 | 0.10 | 93 | 1011.1 |
| 20260507152515 | 13 | 343 | 14.5 | 22.5 | 0.00 | 0.15 | 0.10 | 93 | 1011.2 |
| 20260507151504 | 13 | 9 | 16.1 | 24.1 | 0.00 | 0.15 | 0.10 | 93 | 1011.3 |
| 20260507150511 | 13 | 360 | 12.9 | 19.3 | 0.00 | 0.15 | 0.10 | 94 | 1011.4 |
| 20260507145500 | 13 | 350 | 6.4 | 16.1 | 0.00 | 0.15 | 0.10 | 94 | 1011.3 |
| 20260507144509 | 13 | 32 | 11.3 | 22.5 | 0.00 | 0.15 | 0.10 | 94 | 1011.3 |
| 20260507143535 | 13 | 22 | 11.3 | 20.9 | 0.00 | 0.15 | 0.10 | 94 | 1011.2 |
| 20260507142502 | 13 | 5 | 11.3 | 17.7 | 0.00 | 0.15 | 0.10 | 95 | 1011.2 |
| 20260507141508 | 13 | 5 | 8.0 | 19.3 | 0.00 | 0.15 | 0.10 | 95 | 1011.1 |
| 20260507140515 | 13 | 355 | 11.3 | 16.1 | 0.00 | 0.15 | 0.10 | 95 | 1011.1 |
| 20260507135507 | 13 | 360 | 11.3 | 16.1 | 0.00 | 0.15 | 0.10 | 95 | 1011.1 |
| 20260507134534 | 13 | 360 | 11.3 | 16.1 | 0.00 | 0.15 | 0.10 | 95 | 1011.1 |
| 20260507133502 | 14 | 360 | 8.0 | 14.5 | 0.00 | 0.15 | 0.10 | 95 | 1010.9 |
| 20260507132509 | 14 | 17 | 6.4 | 12.9 | 0.00 | 0.15 | 0.10 | 96 | 1010.9 |
| 20260507131514 | 14 | 39 | 9.7 | 14.5 | 0.00 | 0.15 | 0.10 | 96 | 1010.5 |
| 20260507130504 | 14 | 5 | 8.0 | 11.3 | 0.00 | 0.15 | 0.10 | 96 | 1011.2 |